Location: Aalen
(48.8330°N, 10.1000°E)
Time: 15:55:07
(UTC+01:00)

Envisat - Visible Passes

Search period start: 30 November 2022 00:00
Search period end: 10 December 2022 00:00
Orbit: 763 x 765 km, 98.2° (Epoch: 29 November)

Date Brightness Start Highest point End Pass type
(mag) Time Alt. Az. Time Alt. Az. Time Alt. Az.
30 Nov 5.2 03:53:56 10° NNE 03:55:54 21° NE 03:55:54 21° NE visible
30 Nov 3.9 05:32:51 10° N 05:36:03 31° NNW 05:36:03 31° NNW visible
01 Dec 5.9 03:18:00 10° NE 03:18:16 11° NE 03:18:16 11° NE visible
01 Dec 4.1 04:55:37 10° NNE 04:58:26 34° N 04:58:26 34° N visible
01 Dec 4.6 06:36:24 10° NNW 06:38:36 14° NW 06:38:36 14° NW visible
02 Dec 4.8 04:18:42 10° NNE 04:20:50 24° NNE 04:20:50 24° NNE visible
02 Dec 4.3 05:58:17 10° N 06:01:00 22° NW 06:01:00 22° NW visible
02 Dec 6.1 17:20:01 10° WSW 17:21:52 12° W 17:23:44 10° WNW visible
03 Dec 5.6 03:42:12 10° NE 03:43:14 15° NE 03:43:14 15° NE visible
03 Dec 4.1 05:20:48 10° N 05:23:24 28° NNW 05:23:24 28° NNW visible
04 Dec 4.6 04:43:39 10° NNE 04:45:48 26° NNE 04:45:48 26° NNE visible
04 Dec 4.6 06:23:58 10° NNW 06:25:58 16° NW 06:25:58 16° NW visible
05 Dec 5.3 04:06:50 10° NNE 04:08:12 18° NE 04:08:12 18° NE visible
05 Dec 4.4 05:46:08 10° N 05:48:23 22° NNW 05:48:23 22° NNW visible
05 Dec 5.9 17:06:50 10° WSW 17:09:45 15° W 17:12:39 10° NW visible
06 Dec 5.9 03:30:33 10° NE 03:30:38 10° NE 03:30:38 10° NE visible
06 Dec 4.5 05:08:46 10° N 05:10:48 24° N 05:10:48 24° N visible
06 Dec 4.9 06:50:29 10° NW 06:50:59 11° NW 06:50:59 11° NW visible
07 Dec 5.0 04:31:43 10° NNE 04:33:13 20° NNE 04:33:13 20° NNE visible
07 Dec 4.6 06:11:40 10° NNW 06:13:24 17° NNW 06:13:24 17° NNW visible
08 Dec 5.6 03:55:01 10° NNE 03:55:39 13° NE 03:55:39 13° NE visible
08 Dec 4.6 05:34:01 10° N 05:35:50 21° NNW 05:35:50 21° NNW visible
08 Dec 5.7 16:54:04 10° SW 16:57:38 19° W 17:01:13 10° NW visible
09 Dec 4.8 04:56:45 10° N 04:58:16 20° N 04:58:16 20° N visible
09 Dec 4.9 06:37:38 10° NNW 06:38:27 12° NW 06:38:27 12° NW visible
